Location: Burland Observatory
(39.4088°N, 105.4217°W)
Time: 19:54:10
(UTC-07:00)

SR - Pass Details

Date: 08 December 2019
Orbit: 574 x 882 km, 66.7° (Epoch: 26 January)

Event Time Altitude Azimuth Distance (km) Brightness Sun altitude
Rises 19:56:18 0° 320° (NW) 3,464 ? -37.5°
Reaches altitude 10° 19:59:10 10° 309° (NW) 2,499 ? -38.1°
Enters shadow 20:03:15 27° 266° (W) 1,552 ? -38.8°
Maximum altitude 20:03:59 28° 253° (WSW) 1,515 - -39.0°
Drops below altitude 10° 20:08:34 10° 196° (SSW) 2,354 - -39.9°
Sets 20:11:11 0° 184° (S) 3,228 - -40.4°
